{"data":{"norad_id":55398,"epoch":"2026-09-20T11:27:14.963328Z","epoch_age_seconds":98602,"freshness":"FRESH","line1":"1 55398U 23014H   26263.47725652  .00000266  00000+0  30083-4 0  9998","line2":"2 55398  69.9979 293.2896 0003546 266.1142  93.9612 14.98334913201233","mean_motion":14.98334913,"eccentricity":0.0003546,"inclination_deg":69.9979,"raan_deg":293.2896,"arg_perigee_deg":266.1142,"mean_anomaly_deg":93.9612,"bstar":3.0083e-5,"rev_number":20123,"period_min":96.10668399342,"perigee_km":569.57616492702,"apogee_km":574.5052309504,"semimajor_km":6950.1776979387,"source":"CELESTRAK","updated_at":"2026-09-21T09:00:33.214491Z"}}